Time,TemperatureF,DewpointF,PressureIn,WindDirection,WindDirectionDegrees,WindSpeedMPH,WindSpeedGustMPH,Humidity,HourlyPrecipIn,Conditions,Clouds,dailyrainin,SoftwareType,DateUTC
2013-06-05 00:00:00,65.0,-99.9,-100.00,North,-999,-999.0,-999.0,-999,0.27,,,0.40,,2013-06-05 05:00:00,
2013-06-05 00:23:00,65.0,-99.9,-100.00,North,-999,-999.0,-999.0,-999,0.27,,,0.40,,2013-06-05 05:23:00,
2013-06-05 00:32:00,65.0,-99.9,-100.00,North,-999,-999.0,-999.0,-999,0.27,,,0.40,,2013-06-05 05:32:00,
2013-06-05 00:42:00,65.0,-99.9,-100.00,North,-999,-999.0,-999.0,-999,0.27,,,0.40,,2013-06-05 05:42:00,
2013-06-05 00:53:00,65.0,-99.9,-100.00,North,-999,-999.0,-999.0,-999,0.27,,,0.40,,2013-06-05 05:53:00,
2013-06-05 01:00:00,65.0,-99.9,-100.00,North,-999,-999.0,-999.0,-999,0.02,,,0.42,,2013-06-05 06:00:00,
2013-06-05 01:22:00,65.0,-99.9,-100.00,North,-999,-999.0,-999.0,-999,0.02,,,0.42,,2013-06-05 06:22:00,
2013-06-05 01:32:00,65.0,-99.9,-100.00,North,-999,-999.0,-999.0,-999,0.02,,,0.42,,2013-06-05 06:32:00,
2013-06-05 01:42:00,65.0,-99.9,-100.00,North,-999,-999.0,-999.0,-999,0.02,,,0.42,,2013-06-05 06:42:00,
2013-06-05 01:52:00,65.0,-99.9,-100.00,North,-999,-999.0,-999.0,-999,0.02,,,0.42,,2013-06-05 06:52:00,
2013-06-05 02:00:00,65.0,-99.9,-100.00,North,-999,-999.0,-999.0,-999,0.00,,,0.42,,2013-06-05 07:00:00,
2013-06-05 02:22:00,65.0,-99.9,-100.00,North,-999,-999.0,-999.0,-999,0.00,,,0.42,,2013-06-05 07:22:00,
2013-06-05 02:32:00,65.0,-99.9,-100.00,North,-999,-999.0,-999.0,-999,0.00,,,0.42,,2013-06-05 07:32:00,
2013-06-05 02:42:00,65.0,-99.9,-100.00,North,-999,-999.0,-999.0,-999,0.00,,,0.42,,2013-06-05 07:42:00,
2013-06-05 02:52:00,65.0,-99.9,-100.00,North,-999,-999.0,-999.0,-999,0.00,,,0.42,,2013-06-05 07:52:00,
2013-06-05 03:00:00,65.0,-99.9,-100.00,North,-999,-999.0,-999.0,-999,0.00,,,0.42,,2013-06-05 08:00:00,
2013-06-05 03:22:00,65.0,-99.9,-100.00,North,-999,-999.0,-999.0,-999,0.00,,,0.42,,2013-06-05 08:22:00,
2013-06-05 03:32:00,65.0,-99.9,-100.00,North,-999,-999.0,-999.0,-999,0.00,,,0.42,,2013-06-05 08:32:00,
2013-06-05 03:42:00,65.0,-99.9,-100.00,North,-999,-999.0,-999.0,-999,0.00,,,0.42,,2013-06-05 08:42:00,
2013-06-05 03:52:00,65.0,-99.9,-100.00,North,-999,-999.0,-999.0,-999,0.00,,,0.42,,2013-06-05 08:52:00,
2013-06-05 04:00:00,64.0,-99.9,-100.00,North,-999,-999.0,-999.0,-999,0.00,,,0.42,,2013-06-05 09:00:00,
2013-06-05 04:22:00,64.0,-99.9,-100.00,North,-999,-999.0,-999.0,-999,0.00,,,0.42,,2013-06-05 09:22:00,
2013-06-05 04:33:00,64.0,-99.9,-100.00,North,-999,-999.0,-999.0,-999,0.00,,,0.42,,2013-06-05 09:33:00,
2013-06-05 04:43:00,64.0,-99.9,-100.00,North,-999,-999.0,-999.0,-999,0.00,,,0.42,,2013-06-05 09:43:00,
2013-06-05 04:53:00,64.0,-99.9,-100.00,North,-999,-999.0,-999.0,-999,0.00,,,0.42,,2013-06-05 09:53:00,
2013-06-05 05:00:00,64.0,-99.9,-100.00,North,-999,-999.0,-999.0,-999,0.01,,,0.43,,2013-06-05 10:00:00,
2013-06-05 05:23:00,64.0,-99.9,-100.00,North,-999,-999.0,-999.0,-999,0.01,,,0.43,,2013-06-05 10:23:00,
2013-06-05 05:33:00,64.0,-99.9,-100.00,North,-999,-999.0,-999.0,-999,0.01,,,0.43,,2013-06-05 10:33:00,
2013-06-05 05:43:00,64.0,-99.9,-100.00,North,-999,-999.0,-999.0,-999,0.01,,,0.43,,2013-06-05 10:43:00,
2013-06-05 05:53:00,64.0,-99.9,-100.00,North,-999,-999.0,-999.0,-999,0.01,,,0.43,,2013-06-05 10:53:00,
2013-06-05 06:00:00,62.0,-99.9,-100.00,North,-999,-999.0,-999.0,-999,0.00,,,0.43,,2013-06-05 11:00:00,
2013-06-05 06:22:00,62.0,-99.9,-100.00,North,-999,-999.0,-999.0,-999,0.00,,,0.43,,2013-06-05 11:22:00,
2013-06-05 06:33:00,62.0,-99.9,-100.00,North,-999,-999.0,-999.0,-999,0.00,,,0.43,,2013-06-05 11:33:00,
2013-06-05 06:42:00,62.0,-99.9,-100.00,North,-999,-999.0,-999.0,-999,0.00,,,0.43,,2013-06-05 11:42:00,
2013-06-05 06:52:00,62.0,-99.9,-100.00,North,-999,-999.0,-999.0,-999,0.00,,,0.43,,2013-06-05 11:52:00,
2013-06-05 07:00:00,62.0,-99.9,-100.00,North,-999,-999.0,-999.0,-999,0.00,,,0.34,,2013-06-05 12:00:00,
2013-06-05 07:22:00,62.0,-99.9,-100.00,North,-999,-999.0,-999.0,-999,0.00,,,0.34,,2013-06-05 12:22:00,
2013-06-05 07:32:00,62.0,-99.9,-100.00,North,-999,-999.0,-999.0,-999,0.00,,,0.34,,2013-06-05 12:32:00,
2013-06-05 07:44:00,62.0,-99.9,-100.00,North,-999,-999.0,-999.0,-999,0.00,,,0.34,,2013-06-05 12:44:00,
2013-06-05 07:52:00,62.0,-99.9,-100.00,North,-999,-999.0,-999.0,-999,0.00,,,0.34,,2013-06-05 12:52:00,
2013-06-05 08:00:00,61.0,-99.9,-100.00,North,-999,-999.0,-999.0,-999,0.03,,,0.37,,2013-06-05 13:00:00,
2013-06-05 08:22:00,61.0,-99.9,-100.00,North,-999,-999.0,-999.0,-999,0.03,,,0.37,,2013-06-05 13:22:00,
2013-06-05 08:33:00,61.0,-99.9,-100.00,North,-999,-999.0,-999.0,-999,0.03,,,0.37,,2013-06-05 13:33:00,
2013-06-05 08:43:00,61.0,-99.9,-100.00,North,-999,-999.0,-999.0,-999,0.03,,,0.37,,2013-06-05 13:43:00,
2013-06-05 08:53:00,61.0,-99.9,-100.00,North,-999,-999.0,-999.0,-999,0.03,,,0.37,,2013-06-05 13:53:00,
2013-06-05 09:00:00,60.0,-99.9,-100.00,North,-999,-999.0,-999.0,-999,0.02,,,0.39,,2013-06-05 14:00:00,
2013-06-05 09:22:00,60.0,-99.9,-100.00,North,-999,-999.0,-999.0,-999,0.02,,,0.39,,2013-06-05 14:22:00,
2013-06-05 09:32:00,60.0,-99.9,-100.00,North,-999,-999.0,-999.0,-999,0.02,,,0.39,,2013-06-05 14:32:00,
2013-06-05 09:42:00,60.0,-99.9,-100.00,North,-999,-999.0,-999.0,-999,0.02,,,0.39,,2013-06-05 14:42:00,
2013-06-05 09:52:00,60.0,-99.9,-100.00,North,-999,-999.0,-999.0,-999,0.02,,,0.39,,2013-06-05 14:52:00,
2013-06-05 10:00:00,61.0,-99.9,-100.00,North,-999,-999.0,-999.0,-999,0.00,,,0.39,,2013-06-05 15:00:00,
2013-06-05 10:23:00,61.0,-99.9,-100.00,North,-999,-999.0,-999.0,-999,0.00,,,0.39,,2013-06-05 15:23:00,
2013-06-05 10:34:00,61.0,-99.9,-100.00,North,-999,-999.0,-999.0,-999,0.00,,,0.39,,2013-06-05 15:34:00,
2013-06-05 10:43:00,61.0,-99.9,-100.00,North,-999,-999.0,-999.0,-999,0.00,,,0.39,,2013-06-05 15:43:00,
2013-06-05 10:53:00,61.0,-99.9,-100.00,North,-999,-999.0,-999.0,-999,0.00,,,0.39,,2013-06-05 15:53:00,
2013-06-05 11:00:00,63.0,-99.9,-100.00,North,-999,-999.0,-999.0,-999,0.00,,,0.39,,2013-06-05 16:00:00,
2013-06-05 11:23:00,63.0,-99.9,-100.00,North,-999,-999.0,-999.0,-999,0.00,,,0.39,,2013-06-05 16:23:00,
2013-06-05 11:32:00,63.0,-99.9,-100.00,North,-999,-999.0,-999.0,-999,0.00,,,0.39,,2013-06-05 16:32:00,
2013-06-05 11:42:00,63.0,-99.9,-100.00,North,-999,-999.0,-999.0,-999,0.00,,,0.39,,2013-06-05 16:42:00,
2013-06-05 11:54:00,63.0,-99.9,-100.00,North,-999,-999.0,-999.0,-999,0.00,,,0.39,,2013-06-05 16:54:00,
2013-06-05 12:00:00,65.0,-99.9,-100.00,North,-999,-999.0,-999.0,-999,0.00,,,0.39,,2013-06-05 17:00:00,
2013-06-05 12:23:00,65.0,-99.9,-100.00,North,-999,-999.0,-999.0,-999,0.00,,,0.39,,2013-06-05 17:23:00,
2013-06-05 12:33:00,65.0,-99.9,-100.00,North,-999,-999.0,-999.0,-999,0.00,,,0.39,,2013-06-05 17:33:00,
2013-06-05 12:43:00,65.0,-99.9,-100.00,North,-999,-999.0,-999.0,-999,0.00,,,0.39,,2013-06-05 17:43:00,
2013-06-05 12:52:00,65.0,-99.9,-100.00,North,-999,-999.0,-999.0,-999,0.00,,,0.39,,2013-06-05 17:52:00,
2013-06-05 13:00:00,69.0,-99.9,-100.00,North,-999,-999.0,-999.0,-999,0.00,,,0.39,,2013-06-05 18:00:00,
2013-06-05 13:23:00,69.0,-99.9,-100.00,North,-999,-999.0,-999.0,-999,0.00,,,0.39,,2013-06-05 18:23:00,
2013-06-05 13:32:00,69.0,-99.9,-100.00,North,-999,-999.0,-999.0,-999,0.00,,,0.39,,2013-06-05 18:32:00,
2013-06-05 13:42:00,69.0,-99.9,-100.00,North,-999,-999.0,-999.0,-999,0.00,,,0.39,,2013-06-05 18:42:00,
2013-06-05 13:52:00,69.0,-99.9,-100.00,North,-999,-999.0,-999.0,-999,0.00,,,0.39,,2013-06-05 18:52:00,
2013-06-05 14:00:00,69.0,-99.9,-100.00,North,-999,-999.0,-999.0,-999,0.00,,,0.39,,2013-06-05 19:00:00,
2013-06-05 14:23:00,69.0,-99.9,-100.00,North,-999,-999.0,-999.0,-999,0.00,,,0.39,,2013-06-05 19:23:00,
2013-06-05 14:33:00,69.0,-99.9,-100.00,North,-999,-999.0,-999.0,-999,0.00,,,0.39,,2013-06-05 19:33:00,
2013-06-05 14:43:00,69.0,-99.9,-100.00,North,-999,-999.0,-999.0,-999,0.00,,,0.39,,2013-06-05 19:43:00,
2013-06-05 14:53:00,69.0,-99.9,-100.00,North,-999,-999.0,-999.0,-999,0.00,,,0.39,,2013-06-05 19:53:00,
2013-06-05 15:00:00,70.0,-99.9,-100.00,North,-999,-999.0,-999.0,-999,0.00,,,0.39,,2013-06-05 20:00:00,
2013-06-05 15:23:00,70.0,-99.9,-100.00,North,-999,-999.0,-999.0,-999,0.00,,,0.39,,2013-06-05 20:23:00,
2013-06-05 15:32:00,70.0,-99.9,-100.00,North,-999,-999.0,-999.0,-999,0.00,,,0.39,,2013-06-05 20:32:00,
2013-06-05 15:43:00,70.0,-99.9,-100.00,North,-999,-999.0,-999.0,-999,0.00,,,0.39,,2013-06-05 20:43:00,
2013-06-05 15:52:00,70.0,-99.9,-100.00,North,-999,-999.0,-999.0,-999,0.00,,,0.39,,2013-06-05 20:52:00,
2013-06-05 16:00:00,68.0,-99.9,-100.00,North,-999,-999.0,-999.0,-999,0.00,,,0.39,,2013-06-05 21:00:00,
2013-06-05 16:23:00,68.0,-99.9,-100.00,North,-999,-999.0,-999.0,-999,0.00,,,0.39,,2013-06-05 21:23:00,
2013-06-05 16:33:00,68.0,-99.9,-100.00,North,-999,-999.0,-999.0,-999,0.00,,,0.39,,2013-06-05 21:33:00,
2013-06-05 16:43:00,68.0,-99.9,-100.00,North,-999,-999.0,-999.0,-999,0.00,,,0.39,,2013-06-05 21:43:00,
2013-06-05 16:53:00,68.0,-99.9,-100.00,North,-999,-999.0,-999.0,-999,0.00,,,0.39,,2013-06-05 21:53:00,
2013-06-05 17:00:00,70.0,-99.9,-100.00,North,-999,-999.0,-999.0,-999,0.00,,,0.39,,2013-06-05 22:00:00,
2013-06-05 17:23:00,70.0,-99.9,-100.00,North,-999,-999.0,-999.0,-999,0.00,,,0.39,,2013-06-05 22:23:00,
2013-06-05 17:33:00,70.0,-99.9,-100.00,North,-999,-999.0,-999.0,-999,0.00,,,0.39,,2013-06-05 22:33:00,
2013-06-05 17:43:00,70.0,-99.9,-100.00,North,-999,-999.0,-999.0,-999,0.00,,,0.39,,2013-06-05 22:43:00,
2013-06-05 17:53:00,70.0,-99.9,-100.00,North,-999,-999.0,-999.0,-999,0.00,,,0.39,,2013-06-05 22:53:00,
2013-06-05 18:00:00,72.0,-99.9,-100.00,North,-999,-999.0,-999.0,-999,0.00,,,0.39,,2013-06-05 23:00:00,
2013-06-05 18:22:00,72.0,-99.9,-100.00,North,-999,-999.0,-999.0,-999,0.00,,,0.39,,2013-06-05 23:22:00,
2013-06-05 18:32:00,72.0,-99.9,-100.00,North,-999,-999.0,-999.0,-999,0.00,,,0.39,,2013-06-05 23:32:00,
2013-06-05 18:42:00,72.0,-99.9,-100.00,North,-999,-999.0,-999.0,-999,0.00,,,0.39,,2013-06-05 23:42:00,
2013-06-05 18:53:00,72.0,-99.9,-100.00,North,-999,-999.0,-999.0,-999,0.00,,,0.39,,2013-06-05 23:53:00,
2013-06-05 19:00:00,71.0,-99.9,-100.00,North,-999,-999.0,-999.0,-999,0.00,,,0.39,,2013-06-06 00:00:00,
2013-06-05 19:22:00,71.0,-99.9,-100.00,North,-999,-999.0,-999.0,-999,0.00,,,0.39,,2013-06-06 00:22:00,
2013-06-05 19:32:00,71.0,-99.9,-100.00,North,-999,-999.0,-999.0,-999,0.00,,,0.39,,2013-06-06 00:32:00,
2013-06-05 19:43:00,71.0,-99.9,-100.00,North,-999,-999.0,-999.0,-999,0.00,,,0.39,,2013-06-06 00:43:00,
2013-06-05 19:52:00,71.0,-99.9,-100.00,North,-999,-999.0,-999.0,-999,0.00,,,0.39,,2013-06-06 00:52:00,
2013-06-05 20:00:00,69.0,-99.9,-100.00,North,-999,-999.0,-999.0,-999,0.00,,,0.39,,2013-06-06 01:00:00,
2013-06-05 20:22:00,69.0,-99.9,-100.00,North,-999,-999.0,-999.0,-999,0.00,,,0.39,,2013-06-06 01:22:00,
2013-06-05 20:32:00,69.0,-99.9,-100.00,North,-999,-999.0,-999.0,-999,0.00,,,0.39,,2013-06-06 01:32:00,
2013-06-05 20:42:00,69.0,-99.9,-100.00,North,-999,-999.0,-999.0,-999,0.00,,,0.39,,2013-06-06 01:42:00,
2013-06-05 20:53:00,69.0,-99.9,-100.00,North,-999,-999.0,-999.0,-999,0.00,,,0.39,,2013-06-06 01:53:00,
2013-06-05 21:00:00,64.0,-99.9,-100.00,North,-999,-999.0,-999.0,-999,0.00,,,0.39,,2013-06-06 02:00:00,
2013-06-05 21:22:00,64.0,-99.9,-100.00,North,-999,-999.0,-999.0,-999,0.00,,,0.39,,2013-06-06 02:22:00,
2013-06-05 21:32:00,64.0,-99.9,-100.00,North,-999,-999.0,-999.0,-999,0.00,,,0.39,,2013-06-06 02:32:00,
2013-06-05 21:42:00,64.0,-99.9,-100.00,North,-999,-999.0,-999.0,-999,0.00,,,0.39,,2013-06-06 02:42:00,
2013-06-05 21:52:00,64.0,-99.9,-100.00,North,-999,-999.0,-999.0,-999,0.00,,,0.39,,2013-06-06 02:52:00,
2013-06-05 22:00:00,61.0,-99.9,-100.00,North,-999,-999.0,-999.0,-999,0.00,,,0.39,,2013-06-06 03:00:00,
2013-06-05 22:22:00,61.0,-99.9,-100.00,North,-999,-999.0,-999.0,-999,0.00,,,0.39,,2013-06-06 03:22:00,
2013-06-05 22:33:00,61.0,-99.9,-100.00,North,-999,-999.0,-999.0,-999,0.00,,,0.39,,2013-06-06 03:33:00,
2013-06-05 22:43:00,61.0,-99.9,-100.00,North,-999,-999.0,-999.0,-999,0.00,,,0.39,,2013-06-06 03:43:00,
2013-06-05 22:53:00,61.0,-99.9,-100.00,North,-999,-999.0,-999.0,-999,0.00,,,0.39,,2013-06-06 03:53:00,
2013-06-05 23:00:00,58.0,-99.9,-100.00,North,-999,-999.0,-999.0,-999,0.00,,,0.35,,2013-06-06 04:00:00,
2013-06-05 23:23:00,58.0,-99.9,-100.00,North,-999,-999.0,-999.0,-999,0.00,,,0.35,,2013-06-06 04:23:00,
2013-06-05 23:34:00,58.0,-99.9,-100.00,North,-999,-999.0,-999.0,-999,0.00,,,0.35,,2013-06-06 04:34:00,
2013-06-05 23:42:00,58.0,-99.9,-100.00,North,-999,-999.0,-999.0,-999,0.00,,,0.35,,2013-06-06 04:42:00,
2013-06-05 23:53:00,58.0,-99.9,-100.00,North,-999,-999.0,-999.0,-999,0.00,,,0.35,,2013-06-06 04:53:00,